STARLINK-36502, 67627

Orbit data source: Space-Track

STARLINK-36502, 67627 is a payload satellite owned by SpaceX/Seattle (US) in LEO that was launched on Fri, 30 Jan 2026 UTC via an FALCON 9 launch vehicle from the Air Force Eastern Test Range (AFETR). Payload-class satellites include a variety of spacecraft equipped with specific instruments for various scientific and technological missions. These include communications satellites like Starlink; space stations such as the ISS; scientific satellites like the Hubble; Earth observation satellites from companies like Planet Labs, Umbra, and HawkEye 360; GPS; miniature CubeSats for education and research; and military/defense satellites.

Loading next visibility...
Identifier
67627, 2026-020L
Orbit
LEO
Country
Flag of USUS
Related business
Manufacturer
SpaceX/Seattle
Mission
Operational spacecraft
Bus & Motor
STARLINK V2MO, Unknown motor
Mass
575 kg wet, ~530 kg dry
Launch date (UTC)
2026-01-30 (2 months ago)
Launch vehicle
FALCON 9
Launch site
Air Force Eastern Test Range (AFETR)
Object type
Payload
Rocket body
Debris
Shape & HBR
Unknown shape, 17.7 m
Radar Cross Section
RCS unknown

Expand to show TLE details & history
Last TLE update: 12 hours ago

TLE from 12 hours ago
0 STARLINK-36502
1 67627U 26020L   26104.57904799  .00007703  00000-0  28911-3 0  9992
2 67627  42.9992 296.9940 0001042 260.8612  99.2122 15.27582874 11608
Epoch: 2026-04-14T13:53Z
TLE epoch observation values (Epoch: 2026-04-14T13:53:49.746Z)
Latitude
0.00001°
Longitude
-114.21654°
Altitude
482.93 km
Speed
7.626 km/s
True Right ascension
19h 47m 58s
True Declination
0° 00' 00"
Sunlit
Object was in daylight at epoch
Visualization orbit readout
Latitude
Unknown
Longitude
Unknown
Altitude
Unknown
Speed
Unknown
Apparent Right ascension
Unknown
Apparent Declination
Unknown
Sunlit
N/A
Visualization observer readout
Local Sidereal Time
08:13:36
Azimuth
Unknown
Elevation
Unknown
Doppler factor
Unknown
Orbital elements
Apogee altitude
485.701 km
Perigee altitude
484.271 km
Semi-major axis
6,863.123 km
Eccentricity
0.0001
Inclination
42.9992°
RAAN
296.994°
Arg. of periapsis
260.8612°
True anomaly
99.22399°
Mean anomaly
99.2122°
Eccentric anomaly
99.21809°
Mean motion
3.81734 °/min
Orbital period
94.31 mins
BSTAR
0.00028911
Loading maneuver chart data...
Computing Atmospheric mass density...
Loading historical data...
Loading historical data...
Loading historical data...
Loading historical data...
Loading historical data...
Loading historical data...
Loading historical data...

Documentation

Showing up to 5 results
|